SCP
0 0 0 0 0 0 0 0 0 0 0 0 0 0 0 0 0 0 0 0 0 0 0 0 0 0 0 0 0 0 0 0 0 0 0 0 0 0 0 0 0 0 0 0
0 0 0 0 0 0 0 0 0 0 0 0 0 0 0 0 0 0 0 0 0 0 0 0 0 0 0 0 0 0 0 0 0 0 0 0 0 0 0 0 0 0 0 0
0 0 0 0 0 0 0 0 0 0 0 0 0 0 0 0 0 0 0 0 0 0 0 0 0 0 0 0 0 0 0 0 0 0 0 0 0 0 0 0 0 0 0 0
0 0 0 0 0 0 0 0 0 0 0 0 0 0 0 0 0 0 0 0 0 0 0 0 0 0 0 0 0 0 0 0 0 0 0 0 0 0 0 0 0 0 0 0
0 0 0 0 0 0 0 0 0 0 0 0 0 0 0 0 0 0 0 0 0 0 0 0 0 0 0 0 0 0 0 0 0 0 0 0 0 0 0 0 0 0 0 0
0 0 0 0 0 0 0 0 0 0 0 0 0 0 0 0 0 0 0 0 0 0 0 0 0 0 0 0 0 0 0 0 0 0 0 0 0 0 0 0 0 0 0 0
0 0 0 0 0 0 0 0 0 0 0 0 0 0 0 0 0 0 0 0 0 0 0 0 0 0 0 0 0 0 0 0 0 0 0 0 0 0 0 0 0 0 0 0
0 0 0 0 0 0 0 0 0 0 0 0 0 0 0 0 0 0 0 0 0 0 0 0 0 0 0 0 0 0 0 0 0 0 0 0 0 0 0 0 0 0 0 0
0 0 0 0 0 0 0 0 0 0 0 0 0 0 0 0 0 0 0 0 0 0 0 0 0 0 0 0 0 0 0 0 0 0 0 0 0 0 0 0 0 0 0 0
0 0 0 0 0 0 0 0 0 0 0 0 0 0 0 0 0 0 0 0 0 0 0 0 0 0 0 0 0 0 0 0 0 0 0 0 0 0 0 0 0 0 0 0
0 0 0 0 0 0 0 0 0 0 0 0 0 0 0 0 0 0 0 0 0 0 0 0 0 0 0 0 0 0 0 0 0 0 0 0 0 0 0 0 0 0 0 0
0 0 0 0 0 0 0 0 0 0 0 0 0 0 0 0 0 0 0 0 0 0 0 0 0 0 0 0 0 0 0 0 0 0 0 0 0 0 0 0 0 0 0 0
0 0 0 0 0 0 0 0 0 0 0 0 0 0 0 0 0 0 0 0 0 0 0 0 0 0 0 0 0 0 0 0 0 0 0 0 0 0 0 0 0 0 0 0
0 0 0 0 0 0 0 0 0 0 0 0 0 0 0 0 0 0 0 0 0 0 0 0 0 0 0 0 0 0 0 0 0 0 0 0 0 0 0 0 0 0 0 0
0 0 0 0 0 0 0 0 0 0 0 0 0 0 0 0 0 0 0 0 0 0 0 0 0 0 0 0 0 0 0 0 0 0 0 0 0 0 0 0 0 0 0 0
0 0 0 0 0 0 0 0 0 0 0 0 0 0 0 0 0 0 0 0 0 0 0 0 0 0 0 0 0 0 0 0 0 0 0 0 0 0 0 0 0 0 0 0
0 0 0 0 0 0 0 0 0 0 0 0 0 0 0 0 0 0 0 0 0 0 0 0 0 0 0 0 0 0 0 0 0 0 0 0 0 0 0 0 0 0 0 0
0 0 0 0 0 0 0 0 0 0 0 0 0 0 0 0 0 0 0 0 0 0 0 0 0 0 0 0 0 0 0 0 0 0 0 0 0 0 0 0 0 0 0 0
0 0 0 0 0 0 0 0 0 0 0 0 0 0 0 0 0 0 0 0 0 0 0 0 0 0 0 0 0 0 0 0 0 0 0 0 0 0 0 0 0 0 0 0
0 0 0 0 0 0 0 0 0 0 0 0 0 0 0 0 0 0 0 0 0 0 0 0 0 0 0 0 0 0 0 0 0 0 0 0 0 0 0 0 0 0 0 0
0 0 0 0 0 0 0 0 0 0 0 0 0 0 0 0 0 0 0 0 0 0 0 0 0 0 0 0 0 0 0 0 0 0 0 0 0 0 0 0 0 0 0 0
0 0 0 0 0 0 0 0 0 0 0 0 0 0 0 0 0 0 0 0 0 0 0 0 0 0 0 0 0 0 0 0 0 0 0 0 0 0 0 0 0 0 0 0
0 0 0 0 0 0 0 0 0 0 0 0 0 0 0 0 0 0 0 0 0 0 0 0 0 0 0 0 0 0 0 0 0 0 0 0 0 0 0 0 0 0 0 0
0 0 0 0 0 0 0 0 0 0 0 0 0 0 0 0 0 0 0 0 0 0 0 0 0 0 0 0 0 0 0 0 0 0 0 0 0 0 0 0 0 0 0 0
0 0 0 0 0 0 0 0 0 0 0 0 0 0 0 0 0 0 0 0 0 0 0 0 0 0 0 0 0 0 0 0 0 0 0 0 0 0 0 0 0 0 0 0
0 0 0 0 0 0 0 0 0 0 0 -0 0 0 0 0 0 0 0 0 0 0 0 0 0 0 0 0 0 0 0 0 0 0 0 0 0 0 0 0 0 0 0 0
Wind_Speed
3 3 4 4 6 6 6 7 9 6 3 6 10 13 11 8 7 8 7 6 6 5 4 3 3 3 2 3 3 4 4 4 3 3 4 4 4 4 4 4 6 6 6 6
2 5 5 4 5 7 8 9 9 6 4 6 9 13 12 9 9 8 7 7 6 4 3 3 3 3 3 3 4 4 4 5 5 4 4 4 4 4 4 4 5 6 6 6
5 2 2 5 6 6 8 7 7 6 7 7 7 10 8 6 7 6 6 5 3 3 3 2 2 2 2 3 3 4 4 5 5 4 3 3 3 3 3 4 4 5 6 6
4 3 3 5 5 5 6 4 5 6 5 4 2 7 7 5 6 5 5 4 3 2 1 1 1 2 3 3 3 4 4 4 5 5 4 5 5 5 5 4 4 4 5 5
3 1 3 5 4 4 4 4 5 5 5 5 5 6 8 4 5 5 4 2 1 1 1 2 2 2 2 2 2 3 3 4 4 5 5 5 5 4 3 4 5 5 5 5
5 2 3 3 3 3 3 3 4 4 2 6 8 7 7 3 4 3 1 1 2 2 1 1 2 2 2 2 2 2 3 4 4 4 5 6 6 5 5 5 6 5 4 4
4 4 2 2 3 2 2 1 1 2 3 7 3 5 7 2 0 2 2 2 3 3 3 3 3 3 2 2 3 3 3 4 3 3 4 5 6 6 7 6 6 5 4 4
3 3 4 3 2 2 3 2 2 3 4 4 2 6 4 1 2 3 4 3 3 4 4 4 4 3 3 3 3 3 3 3 3 3 3 4 4 4 4 4 4 5 5 4
2 3 1 2 2 2 2 3 2 3 4 5 6 5 2 1 3 3 3 3 3 3 4 4 4 4 4 3 3 3 2 2 2 2 3 3 3 3 3 3 4 4 4 4
2 4 3 2 2 3 3 1 1 2 3 5 5 5 3 0 1 2 2 2 3 3 4 4 4 4 3 3 2 1 0 1 1 2 2 2 1 2 3 3 4 4 4 4
2 2 2 2 5 5 3 2 3 3 3 3 4 3 2 2 1 1 2 2 2 2 3 4 4 3 3 3 3 2 1 1 1 1 2 2 1 1 1 2 3 3 3 4
1 1 4 4 2 1 2 4 4 3 4 4 4 5 1 4 4 3 3 3 3 3 3 4 4 4 4 3 3 3 2 1 1 1 2 2 1 1 1 2 2 3 3 4
1 1 2 2 1 0 2 3 3 2 2 4 4 6 2 4 4 5 4 4 5 4 4 4 4 4 4 4 4 3 3 2 2 2 2 2 2 1 1 1 2 2 3 3
1 2 4 5 3 1 4 5 5 4 4 5 7 8 5 4 5 4 4 4 4 4 4 4 4 4 4 4 4 4 4 3 3 3 2 2 2 2 1 2 2 2 2 3
0 3 5 7 7 5 7 7 7 9 8 7 7 7 7 5 5 4 4 5 5 5 5 5 4 4 4 4 4 4 4 3 3 3 3 2 2 2 1 2 2 2 2 2
0 2 3 5 6 5 8 8 8 9 9 10 10 10 5 5 5 5 5 5 5 5 5 5 5 5 4 4 4 4 4 4 3 3 2 2 2 2 2 2 2 2 2 2
2 2 2 4 2 4 6 6 6 4 3 5 8 6 5 5 6 5 5 5 4 5 5 5 5 5 5 5 4 4 4 4 3 3 2 2 3 3 2 3 2 2 2 1
3 2 2 3 2 5 4 1 1 3 3 3 3 4 4 5 5 4 3 3 4 6 5 5 5 5 5 5 4 4 4 4 3 3 3 3 3 3 3 3 3 3 2 1
3 3 2 2 3 6 2 0 1 2 3 2 3 5 5 6 5 3 3 4 5 5 5 4 4 4 4 4 4 3 3 3 4 3 3 3 3 3 3 3 3 3 2 2
1 2 2 3 3 4 2 1 2 0 3 2 2 4 4 5 4 4 6 7 7 6 5 5 5 4 4 4 4 4 4 4 4 4 4 3 3 3 3 3 3 3 2 2
2 3 5 4 4 5 1 2 2 0 3 4 3 4 3 3 3 5 6 6 6 6 6 5 4 4 4 4 3 3 3 4 4 4 4 3 3 3 3 3 3 3 2 1
4 3 4 3 4 6 1 2 1 2 3 4 4 4 3 4 5 5 5 6 6 6 6 6 4 4 4 4 4 4 4 4 4 4 4 3 3 3 3 2 3 3 2 1
4 4 3 4 4 1 1 1 0 1 3 4 4 4 4 4 5 5 5 5 5 5 5 5 4 4 4 4 4 4 4 4 4 4 4 3 3 3 3 2 2 2 2 1
2 0 1 3 3 2 1 0 1 2 2 3 4 4 4 5 5 5 5 5 5 5 5 5 4 4 4 4 4 4 4 4 4 4 4 3 3 3 2 2 2 1 1 1
2 1 2 4 3 3 1 1 2 2 3 3 3 3 4 4 5 4 4 5 4 4 4 4 4 4 4 4 4 5 4 4 4 4 4 3 3 3 2 2 2 2 2 1
3 3 3 4 2 2 3 2 2 2 3 3 4 4 4 3 4 4 4 4 4 4 4 4 4 4 5 5 5 5 4 4 4 4 4 3 2 2 2 2 2 3 3 3
Wind_Direction
207 216 218 225 234 263 274 274 273 277 288 276 259 264 263 247 242 250 251 246 239 238 225 206 210 209 206 197 195 194 192 202 196 196 197 197 205 202 191 191 187 182 178 178
220 237 237 252 256 258 262 268 275 289 306 285 275 271 264 245 242 240 239 241 239 230 223 212 204 201 207 209 204 204 206 204 206 206 205 202 201 204 193 191 190 184 183 183
231 242 229 242 252 262 259 256 271 289 308 276 284 283 248 228 228 237 237 235 236 235 230 232 219 212 217 227 219 219 218 214 210 211 207 204 196 198 195 193 193 191 184 185
255 255 258 254 254 256 268 278 285 284 286 274 268 285 267 226 228 228 231 222 227 232 237 265 277 251 242 240 230 228 230 221 211 203 202 205 206 206 199 191 188 187 186 185
264 254 261 258 260 254 264 306 287 274 267 275 235 249 272 224 228 233 223 195 181 53 29 353 327 290 269 271 248 240 242 232 221 208 205 210 220 220 193 184 184 189 193 191
261 267 264 272 284 264 276 286 273 251 248 257 224 217 272 233 229 216 183 71 42 25 15 348 334 322 298 291 271 257 253 246 231 216 210 212 217 210 199 192 190 191 195 195
256 218 215 255 262 246 252 284 308 259 227 246 212 220 250 248 25 109 102 59 30 18 8 357 342 333 311 302 277 260 251 256 244 227 226 222 219 209 205 201 195 193 194 197
276 248 191 203 227 240 234 231 227 250 257 278 263 238 252 141 68 69 85 78 45 20 12 359 345 334 322 308 290 277 258 255 240 239 248 243 223 206 203 211 204 202 200 197
281 274 182 222 248 242 232 228 262 285 284 274 247 237 221 40 39 54 54 43 19 9 8 351 338 336 328 314 293 279 263 262 259 263 283 246 217 203 201 206 209 209 200 197
308 282 255 207 222 243 261 265 201 226 259 268 264 247 251 12 5 28 25 13 2 1 356 347 337 335 324 312 302 289 258 280 308 297 282 281 235 211 204 201 208 209 205 199
297 260 259 211 209 207 194 206 225 240 256 266 283 275 9 31 69 59 1 9 15 352 347 346 342 343 341 340 348 349 12 14 337 302 296 286 282 267 221 206 206 204 207 203
267 261 256 234 213 256 220 216 202 220 249 234 264 273 15 55 39 35 11 8 360 356 359 352 349 351 352 352 359 348 349 357 327 298 299 291 284 288 261 235 223 207 205 208
216 225 282 264 195 250 254 240 232 246 268 243 242 261 346 31 18 20 9 358 352 355 355 355 354 353 350 354 352 348 352 351 344 335 327 312 303 300 294 291 260 219 205 206
272 242 226 239 270 270 253 244 231 220 231 249 244 268 301 347 353 351 352 346 347 354 351 347 345 343 346 351 353 352 351 349 345 346 340 320 312 315 311 318 308 266 225 212
226 251 254 267 278 278 268 256 233 227 233 242 263 280 294 326 334 338 341 340 346 349 353 345 338 338 343 348 349 349 345 343 344 341 335 322 319 324 330 319 311 308 277 252
263 266 289 273 256 256 270 263 248 240 241 252 276 284 304 331 337 329 329 330 331 332 339 341 340 339 341 344 341 341 336 338 341 332 327 326 332 334 330 312 314 303 287 272
206 223 262 270 291 312 271 242 221 229 245 238 253 273 332 335 329 321 321 324 331 333 333 333 334 339 345 342 338 335 331 333 336 328 326 334 336 332 327 316 311 303 292 295
188 207 241 283 330 251 244 50 163 220 255 249 272 312 334 327 316 314 319 328 335 331 328 332 334 334 334 333 336 339 342 339 334 332 332 335 330 323 325 323 316 310 315 304
198 197 238 251 259 267 258 64 16 253 275 271 279 305 323 332 327 326 1 354 337 327 326 328 324 322 328 331 335 345 345 338 335 334 333 333 328 321 324 320 316 317 320 316
170 186 226 241 254 256 287 352 339 243 269 9 340 316 325 342 327 312 346 346 339 337 337 337 335 341 342 337 341 345 339 338 333 329 325 329 330 325 323 324 321 320 320 320
177 200 218 233 248 267 311 322 22 108 281 334 346 336 328 311 285 305 325 329 334 335 337 338 342 344 336 335 340 335 333 327 320 322 322 325 325 322 321 325 325 324 320 320
189 197 204 206 225 253 22 62 120 261 322 338 340 343 336 320 318 321 324 327 334 338 340 341 343 341 341 344 341 337 333 326 326 323 321 319 320 318 319 321 326 330 332 337
205 206 203 204 218 254 107 149 344 -0 326 324 330 333 333 321 315 318 321 324 330 333 333 335 337 338 343 349 348 338 325 328 325 321 314 308 312 313 312 314 318 321 326 326
233 250 238 265 260 268 269 319 344 340 320 324 328 324 322 309 306 311 316 320 326 329 330 332 339 341 339 343 342 330 323 326 324 320 313 309 308 307 310 305 299 304 304 296
242 181 234 256 278 312 291 296 304 313 325 327 325 322 311 307 304 306 313 317 322 326 328 332 334 331 326 327 328 327 325 326 320 315 314 310 302 295 297 297 291 287 276 269
207 198 212 242 246 253 285 311 327 322 318 321 321 321 319 309 303 310 311 314 319 322 324 327 327 327 326 329 327 325 325 323 318 318 320 313 308 302 300 301 310 306 285 305